Location: Gaj?cice Nowe
(51.1014°N, 19.0282°E)
Time: 08:05:03
(UTC+00:00)

Daily predictions for brighter satellites

Satellite Brightness Start Highest point End
(mag) Time Altitude Azimuth Time Altitude Azimuth Time Altitude Azimuth
NOSS 3-4 (C) 4.2 18:53:19 10° NW 18:59:39 56° NE 19:07:07 10° ESE
DEBRIS 3.1 18:58:11 10° WSW 19:00:49 54° SSE 19:07:29 10° E
Meteor 2-12 Rocket 4.5 18:56:10 10° N 19:02:17 81° E 19:08:23 10° SSE
Cosmos 2237 4.4 18:56:35 10° NNW 19:02:21 80° WSW 19:08:05 10° SSE
Cosmos 2082 Rocket 2.2 18:57:58 10° SSW 19:03:39 74° ESE 19:09:22 10° NNE
Cosmos 2016 Rocket 4.0 18:58:16 10° S 19:04:30 80° E 19:10:42 10° NNE
Cosmos 2369 4.1 19:01:11 10° NW 19:06:52 68° WSW 19:12:32 10° SSE
ATLAS 2AS CENTAUR R/B 4.2 19:02:27 10° W 19:08:53 40° NNW 19:15:14 10° NE
CZ-4C R/B 2.9 19:08:41 10° WSW 19:13:03 52° NW 19:18:44 10° NE
IRS-1A Rocket 4.5 19:09:59 10° SSE 19:15:51 86° WSW 19:21:49 10° NNW
CZ-4B R/B 3.7 19:15:30 10° SE 19:18:29 29° ENE 19:21:32 10° N
Cosmos 2151 3.3 19:14:54 10° N 19:18:52 46° ENE 19:22:49 10° SSE
USA 306 2.5 19:17:19 10° W 19:20:29 51° NNW 19:22:39 10° ENE
Cosmos 2098 Rocket 4.5 19:17:15 10° SE 19:20:45 21° E 19:23:55 10° NE
Cosmos 1626 Rocket 3.6 19:19:27 10° N 19:23:50 70° ENE 19:28:12 10° SSE
Ariane Rocket 3.8 19:19:13 10° SE 19:23:51 38° ENE 19:28:31 10° N
Cosmos 2278 3.9 19:19:27 10° NNW 19:25:10 66° ENE 19:30:44 10° SE
Cosmos 1782 3.4 19:25:21 10° SSW 19:28:47 52° WNW 19:32:15 10° N
Spot 2 Rocket 3.5 19:24:02 10° SSE 19:29:03 86° WSW 19:34:08 10° NNW
SL-16 R/B 2.2 19:23:33 10° NNW 19:29:17 84° ENE 19:34:53 10° SSE
Cosmos 1607 4.3 19:24:53 10° SW 19:31:03 73° NW 19:37:22 10° NE
ERS-1 Rocket 4.1 19:27:38 10° SSW 19:32:21 42° W 19:37:07 10° NNW
SPOT 3 Rocket 3.8 19:28:54 10° SE 19:33:54 57° ENE 19:38:56 10° N
MOS 1-B 4.5 19:31:08 10° SSE 19:36:56 83° WSW 19:42:48 10° NNW
Cosmos 1980 Rocket 4.3 19:38:40 10° NW 19:42:50 21° W 19:47:00 10° SSW
Cosmos 2061 Rocket 4.1 19:37:39 10° S 19:43:55 84° W 19:50:17 10° N
CZ-4 R/B 3.8 19:42:41 10° SW 19:44:57 16° W 19:47:15 10° NW
USA 186 1.9 19:42:51 10° S 19:45:32 57° W 19:48:17 10° NNW
Cosmos 2228 3.9 19:42:37 10° SSW 19:46:36 47° WNW 19:50:35 10° N
USA 290 3.7 19:45:44 16° SE 19:46:51 19° ESE 19:49:08 10° ENE
SL-08 R/B 3.6 19:42:15 10° NNE 19:47:05 73° WNW 19:51:47 10° SSW
COSMOS 2406 3.2 19:41:49 10° SSW 19:47:34 77° ESE 19:53:19 10° NNE
CZ-4B R/B 3.6 19:43:25 13° SSE 19:47:37 59° ENE 19:52:26 10° N
Cosmos 1933 3.2 19:45:19 10° S 19:49:03 60° E 19:52:49 10° NNE
ISS -3.7 19:48:01 10° W 19:51:22 79° N 19:54:43 10° E
NOSS 3 (A) 4.0 19:49:23 10° NW 19:51:37 81° SW 19:53:22 20° SE
Cosmos 1461 2.4 19:47:58 10° SSW 19:51:39 71° SE 19:55:20 10° NE
Cosmos 1992 Rocket 4.2 19:46:36 10° SSW 19:51:49 75° WNW 19:57:02 10° NNE
Terra 3.5 19:48:48 10° SSW 19:52:54 30° W 19:57:02 10° NNW
Meteor 1-20 Rocket 4.3 19:48:00 10° NNW 19:53:37 81° W 19:59:18 10° S
Okean 1 4.4 19:51:56 16° SE 19:53:42 23° E 19:56:34 10° NE
Okean O Rocket 2.4 19:53:10 10° S 19:57:19 48° W 20:01:31 10° NNW
Cosmos 1777 Rocket 4.0 19:53:48 10° NNW 19:59:04 76° ENE 20:03:12 16° SSE
Cosmos 2333 Rocket 2.4 19:53:52 10° NW 19:59:33 69° WSW 20:04:29 14° SSE
Cosmos 1544 Rocket 3.7 20:00:44 10° SSW 20:05:04 73° WNW 20:09:24 10° N
NOSS 3-3 (A) 4.2 20:00:38 10° WSW 20:05:57 67° NW 20:12:26 10° NE
Cosmos 1437 Rocket 2.7 20:04:00 10° SSW 20:07:33 75° WNW 20:11:10 10° N
Cosmos 1503 Rocket 4.0 20:03:50 10° NNW 20:09:03 71° ENE 20:12:49 18° SE
Cosmos 2360 Rocket 2.2 20:03:56 10° NNW 20:09:39 89° ENE 20:13:59 18° SSE
Okean 1-7 Rocket 3.7 20:05:19 10° N 20:09:47 68° ENE 20:13:00 19° SSE
Cosmos 2034 Rocket 4.4 20:13:54 17° SSE 20:18:38 47° E 20:24:39 10° NNE
Okean-O 4.1 20:15:44 10° SSW 20:19:38 31° W 20:23:33 10° NNW
Cosmos 2333 4.2 20:13:52 10° NNW 20:19:38 89° ENE 20:23:47 20° SSE
Cosmos 1486 Rocket 4.2 20:14:43 10° NNW 20:19:58 69° WSW 20:23:55 18° S
CZ-2C R/B 1.8 20:21:09 30° SSE 20:22:23 89° NE 20:25:09 10° NNW
Cosmos 2219 Rocket 2.3 20:16:43 10° NNW 20:22:24 74° ENE 20:26:24 20° SE
Cosmos 1766 4.2 20:20:06 10° NNE 20:22:51 26° ENE 20:24:01 20° ESE
Cosmos 1354 Rocket 4.1 20:18:46 10° NNW 20:24:00 67° ENE 20:27:29 21° SE
Nadezhda 4 Rocket 4.0 20:24:35 10° N 20:30:44 89° W 20:35:26 18° S
IRS-1C Rocket 4.4 20:27:08 16° S 20:31:19 66° WSW 20:36:35 10° NNW
Cosmos 540 Rocket 3.8 20:28:07 19° S 20:31:32 46° ESE 20:36:27 10° NE
Cosmos 1825 Rocket 3.5 20:29:46 10° NNW 20:34:09 84° W 20:36:52 23° S
Cosmos 1805 3.6 20:31:32 10° NNW 20:34:40 45° W 20:36:34 20° SSW
Cosmos 220 Rocket 4.4 20:33:52 10° SW 20:37:52 58° WNW 20:41:57 10° NNE
Meteor 2-10 4.4 20:32:54 10° NNW 20:38:38 72° W 20:42:50 19° S
Aureole 1 Rocket 4.2 20:34:14 10° NNW 20:39:53 64° ENE 20:44:26 21° SE
Cosmos 1953 Rocket 3.6 20:36:35 10° N 20:40:55 69° ENE 20:43:09 27° SSE
Helios 1A 3.8 20:37:52 10° NNE 20:41:21 30° E 20:42:24 26° SE
Cosmos 2322 Rocket 2.7 20:36:33 10° NW 20:42:03 53° WSW 20:45:49 20° S
RESURS DK-1 3.6 20:39:32 10° NNW 20:43:10 32° NE 20:45:33 18° ESE
USA 306 2.6 20:45:26 10° WNW 20:47:37 30° N 20:47:38 30° N
Cosmos 2082 Rocket 4.4 20:43:25 10° W 20:48:17 28° NW 20:53:12 10° NNE
Cosmos 2195 Rocket 4.5 20:42:44 10° N 20:49:00 87° E 20:53:05 23° S
TSX-5 4.0 20:46:58 10° NNW 20:49:58 43° NE 20:51:15 28° ESE
NOSS 3-4 (A) 4.3 20:43:31 10° NW 20:50:00 50° WSW 20:55:06 21° S
NOSS 3-4 (C) 4.3 20:44:08 10° NW 20:50:40 51° SW 20:55:45 21° S
Cosmos 1707 2.3 20:52:04 42° ESE 20:52:12 42° E 20:54:55 10° NNE
CZ-4B R/B 4.4 20:49:58 13° SW 20:52:15 23° W 20:55:06 10° NW
Cosmos 2026 Rocket 4.0 20:46:38 10° N 20:53:03 81° E 20:57:08 24° SSE
Geosat 4.5 20:48:44 10° NE 20:53:27 40° ESE 20:55:36 27° SSE
Cosmos 2058 Rocket 3.4 20:53:53 30° SSE 20:55:36 48° E 20:59:47 10° NNE
Cosmos 2098 Rocket 3.9 20:53:24 10° SSW 20:57:52 47° WNW 21:01:47 10° N
Cosmos 1076 Rocket 3.7 20:53:56 10° NNW 20:58:09 65° W 21:00:20 27° S
Cosmos 44 3.5 20:54:27 10° NW 20:59:54 84° SW 21:02:45 28° SE
Cosmos 2237 Rocket 3.7 20:55:31 10° NNW 21:00:30 30° NE 21:05:22 10° ESE
CZ-4C R/B 4.5 20:58:12 10° WNW 21:02:35 26° N 21:08:00 10° NE
Ariane Rocket 4.1 20:59:02 15° SSW 21:02:44 36° W 21:07:26 10° NNW
SL-16 R/B 4.2 21:08:47 10° WNW 21:12:38 19° W 21:16:29 10° SW
Meteor 1-26 Rocket 4.2 21:09:41 24° S 21:13:10 84° E 21:18:55 10° NNE
COSMOS 2428 2.9 21:08:39 10° NNW 21:14:20 65° NE 21:17:37 26° SE
Cosmos 1470 3.0 21:12:23 10° N 21:15:33 41° ENE 21:16:07 37° ESE
Cosmos 1763 Rocket 3.7 21:10:53 13° SSW 21:15:38 75° WNW 21:20:55 10° NNE
ARIANE 5 R/B 3.4 21:15:19 26° ESE 21:17:16 41° ENE 21:21:29 10° N
ALOS 2 3.6 21:17:23 24° ESE 21:19:19 36° ENE 21:23:21 10° N
USA 290 3.9 21:18:07 11° WSW 21:20:46 31° WNW 21:23:37 10° N
Cosmos 1898 Rocket 3.6 21:16:40 10° NNW 21:21:53 71° ENE 21:24:23 31° SE
Meteor 1-11 Rocket 4.5 21:19:25 10° N 21:24:48 42° ENE 21:27:43 24° SE
Helios 1B rocket 1.9 21:24:22 51° SSE 21:25:10 83° ENE 21:28:41 10° NNW
Meteor 2-2 Rocket 4.2 21:22:13 26° S 21:25:37 88° E 21:31:27 10° NNE
ISS -3.8 21:24:51 10° W 21:28:10 62° SSW 21:28:15 61° S
BREEZE-M DEB (TANK) 3.7 21:27:54 10° W 21:28:12 13° W 21:28:12 13° W
Cosmos 1536 3.0 21:32:24 10° NNW 21:36:01 53° W 21:36:59 40° SW
CSL-04 DEB 4.0 21:36:01 54° S 21:36:47 85° WSW 21:40:27 10° NNW
Cosmos-2242 3.5 21:37:47 27° SW 21:39:46 52° WNW 21:43:49 10° N
Cosmos 1092 Rocket 4.4 21:35:48 10° NNW 21:41:49 57° W 21:45:20 25° SSW
Cosmos 2333 Rocket 4.5 21:40:29 10° WNW 21:42:46 12° W 21:45:04 10° WSW
NOSS 0 Rocket 3.9 21:37:19 10° NNW 21:43:33 82° ENE 21:46:51 29° SE
KORONAS-FOTON 3.8 21:43:53 45° SW 21:44:38 60° WNW 21:48:00 10° N
Cosmos 2297 Rocket 3.1 21:46:14 28° SE 21:47:39 32° ESE 21:52:36 10° NE
Cosmos 841 Rocket 3.6 21:47:27 37° S 21:49:20 60° ESE 21:54:30 10° NNE
Meteor 1-14 Rocket 4.1 21:46:42 10° NNW 21:52:16 83° W 21:54:40 35° S
Cosmos 2360 Rocket 4.1 21:49:12 10° WNW 21:52:51 18° W 21:55:44 12° SW
Cosmos 1842 3.0 21:56:49 51° WSW 21:57:09 55° WNW 22:00:16 10° N
Cosmos 2322 3.9 21:52:26 10° NW 21:58:02 61° WSW 22:00:18 35° S
Cosmos 1975 2.5 21:54:58 10° NNW 21:58:40 77° W 21:59:14 60° SSW
Spot 4 3.8 21:57:15 41° SSE 21:58:58 86° WSW 22:03:47 10° NNW
ACS3 Solar Sail 3.7 21:56:20 10° NE 21:59:42 15° E 22:02:41 11° ESE
Meteor 2-6 Rocket 4.4 21:58:28 28° SSW 22:01:47 75° WNW 22:07:46 10° N
Cosmos 1812 Rocket 3.6 22:02:59 46° SSE 22:04:08 67° E 22:08:32 10° NNE
Cosmos 2221 2.3 22:03:18 49° S 22:04:23 88° E 22:08:36 10° N
Cosmos 2219 Rocket 3.8 22:01:31 10° NW 22:05:46 22° WSW 22:08:05 17° SW
Cosmos 1271 Rocket 2.8 22:06:21 46° WSW 22:06:56 53° WNW 22:10:15 10° N
MetOp-A 4.3 22:05:00 32° SE 22:07:01 54° ENE 22:11:31 10° N
Helios 1A 4.4 22:12:34 10° N 22:16:00 29° WNW 22:18:07 18° WSW
ARGOS Delta rocket 4.0 22:11:12 10° NNE 22:16:24 85° ESE 22:18:32 38° S
Cosmos 2279 Rocket 4.3 22:16:39 26° SSW 22:20:13 63° WNW 22:26:27 10° N
RESURS DK-1 3.2 22:16:55 10° NW 22:20:31 33° WSW 22:20:45 33° WSW
Meteor 2-20 4.5 22:19:22 35° S 22:22:02 70° E 22:28:06 10° NNE
NOSS 8 (F) 4.2 22:19:26 10° NW 22:22:21 70° NE 22:22:22 70° NE
Cosmos 858 Rocket 4.5 22:21:05 10° NNW 22:26:14 69° WSW 22:27:57 41° S
Meteor 1-19 Rocket 4.4 22:24:37 32° SSW 22:27:25 76° WNW 22:33:25 10° N
Cosmos 1937 Rocket 3.9 22:23:44 10° NNW 22:28:39 48° WSW 22:30:09 37° SSW
CZ-2C R/B 4.2 22:28:00 10° N 22:32:21 52° WNW 22:34:15 30° SW
SL-16 R/B 3.4 22:28:19 10° NNW 22:33:41 40° NE 22:38:56 10° ESE
GP-B 3.0 22:30:39 10° N 22:35:03 84° W 22:36:11 49° S
CZ-2C R/B 2.6 22:39:09 36° SSE 22:41:23 77° ENE 22:46:35 10° NNW
Lacrosse 4 Rocket 1.6 22:42:44 46° SE 22:42:58 47° ESE 22:46:54 10° NE
Cosmos 2237 Rocket 2.2 22:39:22 10° NW 22:45:01 67° WSW 22:47:09 38° S
SeaSat 1 3.1 22:42:54 19° ESE 22:46:16 52° NE 22:51:03 10° NNW
USA 234 3.3 22:39:52 10° ENE 22:46:19 57° SE 22:49:36 30° SSW
Cosmos 2266 Rocket 4.2 22:41:58 10° NNW 22:47:50 55° W 22:50:26 32° SSW
Cosmos 1980 3.8 22:43:41 10° NW 22:49:14 58° WSW 22:51:12 38° S
CZ-4C R/B 4.4 22:47:20 10° NW 22:52:35 31° NNE 22:59:06 10° ENE
Intercosmos 24 3.8 22:49:19 10° NNW 22:53:06 56° W 22:53:29 52° SW
ARIANE 5 R/B 3.9 22:52:41 25° WSW 22:53:42 27° W 22:57:31 10° NW
ATLAS 2AS CENTAUR R/B 3.9 22:47:42 10° NW 22:54:08 42° NNE 23:00:32 10° E
ALOS 2 3.7 22:54:46 27° WSW 22:55:42 30° W 22:59:36 10° NNW
Cosmos 2227 Rocket 2.7 22:55:49 34° SSE 22:57:44 46° ESE 23:03:08 10° NE
COSMOS 2428 3.9 22:53:32 10° NW 22:58:07 26° WSW 22:59:35 23° SW
Meteor 2-4 Rocket 3.6 23:00:13 39° S 23:02:23 87° ESE 23:07:58 10° NNE
BlueWalker 3 2.5 23:05:22 39° ESE 23:05:22 39° ESE 23:07:59 10° ENE
Cosmos 2263 Rocket 3.1 23:03:56 28° SE 23:05:48 35° ESE 23:10:49 10° NE
CZ-2C R/B 3.3 23:00:57 10° NNE 23:06:44 78° WNW 23:09:26 34° SSW
Cosmos 1125 Rocket 4.1 23:03:52 10° NNW 23:09:05 54° ENE 23:12:45 19° SE
Cosmos 1766 Rocket 3.8 23:05:01 10° NNW 23:09:12 53° W 23:10:08 43° SW
Cosmos 1758 3.7 23:06:48 10° N 23:10:20 47° ENE 23:11:14 38° ESE
Cosmos 1238 Rocket 3.2 23:14:04 43° SW 23:15:06 57° WNW 23:19:30 10° N
Cosmos 1655 Rocket 4.1 23:15:14 10° NNW 23:21:23 62° W 23:24:15 32° SSW
SWARM C 4.3 23:19:39 10° N 23:22:56 90° ESE 23:23:05 80° S
SWARM A 4.1 23:19:47 10° N 23:23:02 76° E 23:23:15 71° SE
Cosmos 1814 Rocket 3.9 23:21:58 38° SSW 23:24:01 85° ESE 23:29:18 10° NNE
Alouette 2 Rocket 4.1 23:23:32 10° NNW 23:27:13 44° W 23:28:18 37° SW
Meteor 2-11 Rocket 4.4 23:22:09 10° NNW 23:28:17 74° W 23:31:13 32° S
Meteor 1-27 Rocket 4.4 23:25:49 26° SW 23:28:47 49° WNW 23:34:20 10° N
Meteor 2-10 Rocket 3.8 23:24:20 10° NNW 23:29:49 63° W 23:32:13 34° SSW
Cosmos 1340 Rocket 3.2 23:27:34 10° N 23:31:21 53° ENE 23:32:47 33° SE
Cosmos 2297 Rocket 2.7 23:27:59 22° WSW 23:31:27 53° NW 23:37:00 10° NNE
CENTAUR R/B 4.2 23:31:16 11° SE 23:33:59 15° ESE 23:37:30 10° ENE
Cosmos 1151 Rocket 3.4 23:34:52 35° SSE 23:36:21 53° E 23:40:35 10° NNE
BREEZE-M DEB (TANK) 3.8 23:39:18 28° SE 23:39:18 28° SE 23:42:07 10° ESE
DELTA 2 DEB (DPAF) 3.5 23:34:47 10° NNE 23:38:22 76° ESE 23:39:02 55° S
SL-14 R/B 3.1 23:39:49 52° SSW 23:40:41 86° W 23:44:30 10° N
CZ-4C R/B 2.9 23:37:47 10° NNE 23:41:11 80° WNW 23:41:47 58° SSW
Cosmos 1244 Rocket 4.5 23:35:32 10° NNW 23:41:40 71° W 23:44:47 30° S
Cosmos 158 Rocket 4.2 23:39:40 30° SW 23:42:16 65° WNW 23:47:35 10° NNE
ACS3 Solar Sail 1.7 23:37:00 10° NNE 23:43:01 79° ESE 23:46:10 30° S
Cosmos 1953 4.0 23:41:21 10° NNE 23:44:28 26° ENE 23:46:58 13° ESE
Landsat 5 3.8 23:43:13 10° N 23:47:12 53° WNW 23:48:28 36° SW
Cosmos 1500 Rocket 3.5 23:44:41 10° N 23:49:09 90° E 23:50:58 35° S
IDEFIX/ARIANE 42P 3.8 23:44:47 10° NNE 23:49:29 32° E 23:52:42 17° SSE
Cosmos 1703 4.1 23:54:48 26° SE 23:55:41 31° E 23:58:33 10° NNE
